When you browse on this site, cookies collect data to enhance your experience and personalize the content and advertising you see.
Visit our Privacy Policy to learn more. By continuing to use the site, you agree to this use of cookies and data.
  • Em Portugal
  • Lista de países
  • Para 7 dias
  • Temperatura da água
  • Mapas de satélite
  • Mapa do tempo
  • Widgets de tempo
  • user-avatar
    Iniciar Sessão

    Previsão horária em Moiseevka

    Hoje, 26 Abril, Sexta-feira

    Tempo Temperatura Precipitação Vento Pressão Humidade
    00:00 +10°C° 0 mm 2 m/s 754 mmHg 80%
    01:00 +10°C° 0 mm 2 m/s 755 mmHg 82%
    02:00 +9°C° 0 mm 2 m/s 755 mmHg 84%
    03:00 +8°C° 0 mm 2 m/s 755 mmHg 85%
    04:00 +8°C° 0 mm 2 m/s 755 mmHg 82%
    05:00 +8°C° 0 mm 2 m/s 755 mmHg 79%
    06:00 +8°C° 0 mm 2 m/s 755 mmHg 76%
    07:00 +10°C° 0 mm 3 m/s 756 mmHg 67%
    08:00 +11°C° 0 mm 3 m/s 756 mmHg 59%
    09:00 +12°C° 0 mm 4 m/s 756 mmHg 50%
    10:00 +13°C° 0 mm 4 m/s 756 mmHg 47%
    11:00 +13°C° 0 mm 4 m/s 756 mmHg 43%
    12:00 +14°C° 0 mm 4 m/s 756 mmHg 40%
    13:00 +14°C° 0 mm 4 m/s 756 mmHg 39%
    14:00 +15°C° 0 mm 4 m/s 756 mmHg 38%
    15:00 +15°C° 0 mm 4 m/s 756 mmHg 37%
    16:00 +14°C° 0 mm 3 m/s 756 mmHg 40%
    17:00 +14°C° 0 mm 3 m/s 756 mmHg 42%
    18:00 +14°C° 0 mm 2 m/s 755 mmHg 45%
    19:00 +13°C° 0 mm 2 m/s 756 mmHg 47%
    20:00 +12°C° 0 mm 1 m/s 756 mmHg 49%
    21:00 +9°C° 0 mm 0 m/s 756 mmHg 51%
    22:00 +10°C° 0 mm 1 m/s 756 mmHg 52%
    23:00 +10°C° 0 mm 1 m/s 756 mmHg 53%

    Amanhã, 27 Abril, Sábado

    Tempo Temperatura Precipitação Vento Pressão Humidade
    00:00 +9°C° 0 mm 1 m/s 756 mmHg 54%
    01:00 +9°C° 0 mm 1 m/s 756 mmHg 56%
    02:00 +8°C° 0 mm 1 m/s 756 mmHg 58%
    03:00 +8°C° 0 mm 1 m/s 756 mmHg 60%
    04:00 +7°C° 0 mm 2 m/s 755 mmHg 62%
    05:00 +8°C° 0 mm 2 m/s 755 mmHg 65%
    06:00 +8°C° 0 mm 2 m/s 755 mmHg 67%
    07:00 +10°C° 0 mm 3 m/s 755 mmHg 62%
    08:00 +12°C° 0 mm 4 m/s 754 mmHg 56%
    09:00 +15°C° 0 mm 4 m/s 754 mmHg 51%
    10:00 +16°C° 0 mm 5 m/s 754 mmHg 46%
    11:00 +17°C° 0 mm 5 m/s 753 mmHg 41%
    12:00 +19°C° 0 mm 5 m/s 753 mmHg 36%
    13:00 +19°C° 0 mm 5 m/s 752 mmHg 35%
    14:00 +19°C° 0 mm 5 m/s 752 mmHg 34%
    15:00 +20°C° 0 mm 5 m/s 751 mmHg 33%
    16:00 +19°C° 0 mm 4 m/s 751 mmHg 36%
    17:00 +18°C° 0 mm 3 m/s 750 mmHg 40%
    18:00 +18°C° 0 mm 2 m/s 750 mmHg 44%
    19:00 +16°C° 0 mm 2 m/s 750 mmHg 50%
    20:00 +14°C° 0 mm 3 m/s 749 mmHg 56%
    21:00 +13°C° 0 mm 3 m/s 749 mmHg 62%
    22:00 +13°C° 0 mm 3 m/s 748 mmHg 63%
    23:00 +12°C° 0 mm 3 m/s 748 mmHg 64%

    Depois de amanhã, 28 Abril, Domingo

    Tempo Temperatura Precipitação Vento Pressão Humidade
    00:00 +11°C° 0 mm 3 m/s 747 mmHg 65%
    01:00 +11°C° 0 mm 4 m/s 747 mmHg 64%
    02:00 +11°C° 0 mm 4 m/s 746 mmHg 64%
    03:00 +10°C° 0 mm 5 m/s 746 mmHg 63%
    04:00 +12°C° 0 mm 5 m/s 745 mmHg 63%
    05:00 +12°C° 0 mm 5 m/s 745 mmHg 63%
    06:00 +12°C° 0 mm 5 m/s 744 mmHg 64%
    07:00 +14°C° 0 mm 6 m/s 744 mmHg 61%
    08:00 +15°C° 0 mm 6 m/s 744 mmHg 58%
    09:00 +17°C° 0 mm 6 m/s 744 mmHg 55%
    10:00 +14°C° 0.6 mm 6 m/s 745 mmHg 63%
    11:00 +10°C° 0.6 mm 6 m/s 745 mmHg 71%
    12:00 +8°C° 0.6 mm 6 m/s 745 mmHg 79%
    13:00 +7°C° 0.8 mm 6 m/s 745 mmHg 79%
    14:00 +5°C° 0.8 mm 6 m/s 746 mmHg 79%
    15:00 +4°C° 0.8 mm 6 m/s 747 mmHg 79%
    16:00 +4°C° 0.2 mm 6 m/s 747 mmHg 75%
    17:00 +4°C° 0.2 mm 6 m/s 748 mmHg 72%
    18:00 +4°C° 0.2 mm 6 m/s 749 mmHg 68%
    19:00 +3°C° 0 mm 5 m/s 749 mmHg 69%
    20:00 +3°C° 0 mm 4 m/s 750 mmHg 70%
    21:00 +1°C° 0 mm 4 m/s 751 mmHg 71%
    22:00 +1°C° 0 mm 4 m/s 751 mmHg 72%
    23:00 +1°C° 0 mm 4 m/s 751 mmHg 72%

    29 Abril, Segunda-feira

    Tempo Temperatura Precipitação Vento Pressão Humidade
    00:00 0°C° 0 mm 4 m/s 752 mmHg 73%
    01:00 0°C° 0 mm 4 m/s 752 mmHg 72%
    02:00 -1°C° 0 mm 4 m/s 752 mmHg 72%
    03:00 -2°C° 0 mm 4 m/s 752 mmHg 72%
    04:00 -2°C° 0 mm 4 m/s 753 mmHg 70%
    05:00 -2°C° 0 mm 5 m/s 753 mmHg 69%
    06:00 -1°C° 0 mm 5 m/s 753 mmHg 67%
    07:00 0°C° 0 mm 5 m/s 753 mmHg 62%
    08:00 +1°C° 0 mm 6 m/s 754 mmHg 57%
    09:00 +2°C° 0 mm 6 m/s 754 mmHg 51%
    10:00 +2°C° 0 mm 6 m/s 754 mmHg 50%
    11:00 +3°C° 0 mm 6 m/s 754 mmHg 49%
    12:00 +3°C° 0 mm 6 m/s 754 mmHg 47%
    13:00 +3°C° 0.1 mm 6 m/s 754 mmHg 48%
    14:00 +4°C° 0.1 mm 6 m/s 754 mmHg 49%
    15:00 +4°C° 0.1 mm 6 m/s 754 mmHg 50%
    16:00 +3°C° 0.1 mm 6 m/s 754 mmHg 52%
    17:00 +3°C° 0.1 mm 5 m/s 754 mmHg 55%
    18:00 +2°C° 0.1 mm 5 m/s 755 mmHg 57%
    19:00 +1°C° 0 mm 4 m/s 755 mmHg 62%
    20:00 +1°C° 0 mm 3 m/s 755 mmHg 67%
    21:00 +1°C° 0 mm 3 m/s 756 mmHg 71%
    22:00 0°C° 0 mm 3 m/s 756 mmHg 74%
    23:00 -1°C° 0 mm 2 m/s 756 mmHg 76%

    30 Abril, Terça-feira

    Tempo Temperatura Precipitação Vento Pressão Humidade
    00:00 -1°C° 0 mm 2 m/s 756 mmHg 78%
    01:00 -2°C° 0 mm 2 m/s 756 mmHg 77%
    02:00 -2°C° 0 mm 2 m/s 756 mmHg 76%
    03:00 -2°C° 0 mm 2 m/s 757 mmHg 76%
    04:00 -2°C° 0 mm 2 m/s 757 mmHg 70%
    05:00 -1°C° 0 mm 2 m/s 757 mmHg 64%
    06:00 +1°C° 0 mm 2 m/s 757 mmHg 59%
    07:00 +2°C° 0 mm 2 m/s 757 mmHg 51%
    08:00 +3°C° 0 mm 2 m/s 757 mmHg 44%
    09:00 +4°C° 0 mm 3 m/s 758 mmHg 37%
    10:00 +4°C° 0 mm 3 m/s 757 mmHg 35%
    11:00 +5°C° 0 mm 3 m/s 757 mmHg 33%
    12:00 +7°C° 0 mm 2 m/s 757 mmHg 31%
    13:00 +7°C° 0 mm 3 m/s 756 mmHg 31%
    14:00 +7°C° 0 mm 3 m/s 756 mmHg 31%
    15:00 +8°C° 0 mm 3 m/s 756 mmHg 31%
    16:00 +7°C° 0 mm 3 m/s 756 mmHg 34%
    17:00 +7°C° 0 mm 2 m/s 756 mmHg 37%
    18:00 +6°C° 0 mm 2 m/s 755 mmHg 40%
    19:00 +5°C° 0 mm 2 m/s 756 mmHg 43%
    20:00 +4°C° 0 mm 2 m/s 756 mmHg 45%
    21:00 +3°C° 0 mm 2 m/s 756 mmHg 48%
    22:00 +2°C° 0 mm 2 m/s 756 mmHg 50%
    23:00 +2°C° 0 mm 2 m/s 756 mmHg 52%

    1 Maio, Quarta-feira

    Tempo Temperatura Precipitação Vento Pressão Humidade
    00:00 +2°C° 0 mm 2 m/s 756 mmHg 54%
    01:00 +1°C° 0 mm 2 m/s 756 mmHg 57%
    02:00 +1°C° 0 mm 2 m/s 756 mmHg 60%
    03:00 +1°C° 0 mm 2 m/s 756 mmHg 63%
    04:00 +2°C° 0 mm 2 m/s 756 mmHg 61%
    05:00 +2°C° 0 mm 2 m/s 756 mmHg 60%
    06:00 +3°C° 0 mm 2 m/s 756 mmHg 58%
    07:00 +5°C° 0 mm 2 m/s 756 mmHg 52%
    08:00 +7°C° 0 mm 2 m/s 756 mmHg 46%
    09:00 +8°C° 0 mm 2 m/s 756 mmHg 40%
    10:00 +9°C° 0 mm 3 m/s 755 mmHg 39%
    11:00 +9°C° 0 mm 3 m/s 755 mmHg 37%
    12:00 +10°C° 0 mm 3 m/s 755 mmHg 35%
    13:00 +10°C° 0 mm 3 m/s 755 mmHg 35%
    14:00 +10°C° 0 mm 3 m/s 754 mmHg 35%
    15:00 +11°C° 0 mm 3 m/s 754 mmHg 35%
    16:00 +10°C° 0 mm 3 m/s 754 mmHg 38%
    17:00 +10°C° 0 mm 2 m/s 754 mmHg 41%
    18:00 +10°C° 0 mm 2 m/s 754 mmHg 43%
    19:00 +9°C° 0 mm 2 m/s 754 mmHg 46%
    20:00 +7°C° 0 mm 2 m/s 754 mmHg 49%
    21:00 +6°C° 0 mm 2 m/s 754 mmHg 52%
    22:00 +6°C° 0 mm 2 m/s 754 mmHg 54%
    23:00 +6°C° 0 mm 2 m/s 754 mmHg 56%
    Mostrar mais